Погода Чимбай

Погода Чимбай : погода сейчас, прогноз погоды и архив. Всё, что Вы хотите узнать о погоде Чимбай!

Хотите узнать прогноз погоды Чимбай? Тогда Вам сюда: Погода Чимбай

Поиск расширенной информации на нашем сайте:

Другие новости

Новости СМИ2

Главная страница сайта

Новости сайта

03.07.2017

Напоминаем, что на нашем специализированном сайте Метеоцентр.Азия вы можете получить высокодетализированные автоматические прогнозы погоды по пунктам России, СНГ и мира в авиационном формате (включающие направление и скорость ветра, видимость, явления погоды, количество и форму облачности, нижнюю и верхнюю границу облачности).

Рекомендуем: Классификация и виды складского немеханического оборудования.

Погода Чимбай - сегодня

Время (UTC), дата Ветер
(°,м/с) 
Видим.   Явления Облачность Т
(°С)
Тd
(°С)
f(%) Тe
(°С)
Pmin
(гПа)
dP
(гПа)
Po
(мм)
O2
(г/м3)
Тmin Tmax R s Состояние
почвы
12 18.10.17 280 (З) 20000 м  в посл. час ливневой дождь  9/9 600 м кучево-дожд. 
[Cb cap]
+10.1 +8.2 88 +10  1018.5  1.3  758  293           
18 18.10.17 250 (З) н/о    ясно 
+7.2 +5.6 90 +7  1023.1  2.4  761  298    +11.8     
21 18.10.17 250 (З) н/о    ясно 
+6.2 +5.3 94 +7  1025  1.7  763  300           
00 19.10.17 250 (З) н/о    ясно 
+4.9 +4.4 97 +6  1026.1  1.1  763  301           
03 19.10.17 230 (ЮЗ) 20000 м    ясно 
+3.7 +3.2 97 +5  1028.2  2.1  765  304           
06 19.10.17 220 (ЮЗ) 20000 м    ясно 
+9.1 +7.4 89 +9  1029  766  297  +3.2         
09 19.10.17 250 (З) 20000 м    8/5 1000 м средняя, верхняя 
[Cu hum|Ac trans|Ci sp]
+13.6 +6.2 61 +13  1028.5  -0.4  765  293           
12 19.10.17 220 (ЮЗ) 20000 м    4/0 верхняя 
[Ci sp]
+13.8 +6.5 61 +14  1028.4  -0.1  765  293           
15 19.10.17 160 (Ю) н/о    ясно 
+7.9 +6.1 88 +9  1028.8  0.3  766  299    +14.4       
18 19.10.17 170 (Ю) н/о    ясно 
+7.9 +6.1 88 +9  1027.7  -1.1  765  298    +14.4       
21 19.10.17 тихо ()   н/о    ясно 
+5.4 +4.5 94 +5  1026.6  -1.3  764  301           
00 20.10.17 тихо ()   н/о    ясно 
+3.5 +2.7 94 +4  1025.2  -1.4  763  303           
03 20.10.17 тихо ()   20000 м    ясно 
+3.2 +2.7 97 +3  1025.1  -0.1  763  303  +2.9        мокрая 
06 20.10.17 150 (ЮВ) 20000 м    ясно 
+12.9 +7.1 68 +14  1024.7  -0.1  763  292  +2.9         
09 20.10.17 тихо ()   20000 м    ясно 
+16.4 +4.3 45 +16  1022  -2.6  761  288           
12 20.10.17 тихо ()   20000 м    ясно 
+16.6 +3.6 42 +17  1021.5  -0.4  760  288           
15 20.10.17 тихо ()   н/о    ясно 
+8.3 -0.5 54 +8  1019  -2.8  758  297    +17.3       
18 20.10.17 тихо ()   н/о    ясно 
+6.2 -2 56 +6  1018.4  -0.7  758  299    +17.3       
21 20.10.17 тихо ()   н/о    ясно 
+5.3 -1.2 63 +5  1017.4  -1  757  299           
00 21.10.17 тихо ()   н/о    ясно 
+4.7 -1 66 +5  1016.9  -0.5  757  300           
03 21.10.17 тихо ()   20000 м    ясно 
+4.6 -0.5 69 +5  1016.9  757  300  +4        влажная 
06 21.10.17 210 (ЮЗ) 20000 м    ясно 
+13.9 +7.4 65 +15  1018.3  1.7  758  289  +4         
09 21.10.17 250 (З) 20000 м    4/0 верхняя 
[Ci sp]
+18.1 +6.4 46 +20  1018.2  758  285           
12 21.10.17 220 (ЮЗ) 20000 м    3/0 верхняя 
[Ci sp]
+18.4 +5.3 42 +19  1017.3  -0.9  757  285           
15 21.10.17 170 (Ю) н/о    ясно 
+10.8 +6.5 75 +12  1017.5  -0.1  757  292    +19.1       
Время (UTC), дата Ветер
(°,м/с) 
Видим.   Явления Облачность Т
(°С)
Тd
(°С)
f(%) Тe
(°С)
Pmin
(гПа)
dP
(гПа)
Po
(мм)
O2
(г/м3)
Тmin Tmax R s Состояние
почвы

Для получения пояснительной информации подведите курсор к названию столбца.

ПОГОДА Чимбай - архив

Всё, что Вы хотите узнать о погоде Чимбай - удобно и подробно!

Выберите нужную дату (начиная с 1 января 2015* года) и нажмите кнопку "Найти".
Будут отображены архивные сводки погоды по пункту Чимбай, начиная с указанной даты.


Отображать данные в формате CSV (для использования в таблицах Excel)


Внимание! Наш архив погоды предназначен исключительно для личного некоммерческого использования в познавательных целях. Если Вам необходимы официальные справки о состоянии погоды (для производственных, юридических, коммерческих и т.п. целей), обращайтесь в органы Росгидромета.

*Примечание: данная дата относится к архиву по метеостанциям СССР (Россия, СНГ, Балтия).
Архив по метеостанциям Зарубежной Европы и Азии (кроме Китая) хранится 10 дней, по другим регионам земного шара (Китай, Африка, Америка, Австралия, Океания) - 1 день.

Чимбай - район местоположения метеостанции


Название, широта, долгота, высота метеостанции:
Чимбай 42.9°ш. 59.8°д. 66 м над ур. моря [Узбекистан]

Дополнительная информация

В oтличие oт бoльшинства пoгoдных сайтoв мы публикуем пoдрoбную метеoинфoрмацию в детальнoм прoфессиoнальнoм фoрмате.

Характеристики температуры и влажнoсти вoздуха измеряются на высoте 2 м в тени вдали oт зданий и деревьев.
Скoрoсть ветра измеряется на высoте 10 м (на урoвне рoста челoвека скoрoсть ветра ниже в 1.5-2 раза). Если метеoстанция нахoдится в гoрoде или в лесу, тo скoрoсть ветра занижена на 2-4 м/с пo сравнению с oткрытым местoм. Скoрoсть ветра над акватoриями крупных рек и oзёр, а также на вершинах хoлмoв на 2-5 м/с выше, чем в oбычных услoвиях.
Атмoсфернoе давление в разных тoчках местнoсти мoжет значительнo oтличаться oт давления на метеoстанции, в зависимoсти oт услoвий рельефа (при пoдъёме на 10 м давление пoнижается примернo на 1 мм рт.ст.).